Location: Moscow
(38.8570°N, 84.2291°W)
Time: 22:32:38
(UTC+00:00)

UKube-1 - Visible Passes

Search period start: 12 March 2026 00:00
Search period end: 22 March 2026 00:00
Orbit: 528 x 533 km, 98.4° (Epoch: 12 March)

Date Brightness Start Highest point End Pass type
(mag) Time Alt. Az. Time Alt. Az. Time Alt. Az.
12 Mar ? 10:06:48 10° NE 10:09:35 19° E 10:12:21 10° SE visible
13 Mar ? 09:57:06 10° ENE 09:59:12 14° E 10:01:18 10° SE visible
14 Mar ? 09:48:10 10° E 09:48:47 10° E 09:49:25 10° ESE visible
14 Mar ? 11:19:34 10° N 11:23:17 49° WNW 11:26:59 10° SSW visible
15 Mar ? 11:09:09 10° N 11:12:59 69° WNW 11:16:47 10° SSW visible
16 Mar ? 10:58:46 10° NNE 11:02:37 86° E 11:06:28 10° SSW visible
17 Mar ? 10:48:26 10° NNE 10:52:14 61° ESE 10:56:01 10° S visible
18 Mar ? 10:38:08 10° NNE 10:41:49 43° E 10:45:28 10° S visible
19 Mar ? 10:27:53 10° NE 10:31:21 31° E 10:34:47 10° SSE visible
20 Mar ? 10:17:44 10° NE 10:20:51 23° E 10:23:57 10° SSE visible
21 Mar ? 10:07:42 10° NE 10:10:18 17° E 10:12:54 10° SE visible
